Satellite-Ground Cal/Val Site Overpasses Predictions

Prediction of Satellite NPP Overpassing Cal/Val Site: Antarctic Dome C

Ground Cal/Val Site Location: Latitude: -75.10, Longitude: 123.35; Satellite-Ground Site NADIR distance within 100 km.

Table of predicted overpasses for the next 14.0 days since TLE Epoch: 7/24/2014
Interval Starting Time Ending Time Minimum Distance Time Minimum Distance (km)
1 07/24/2014 07:32:45 07/24/2014 07:33:12 07/24/2014 07:32:58 41.93
2 07/27/2014 14:56:17 07/27/2014 14:56:46 07/27/2014 14:56:32 7.31
3 07/29/2014 07:39:09 07/29/2014 07:39:39 07/29/2014 07:39:24 5.12
4 08/01/2014 15:02:42 08/01/2014 15:03:10 08/01/2014 15:02:56 29.62
5 08/02/2014 14:44:00 08/02/2014 14:44:18 08/02/2014 14:44:09 77.41
6 08/03/2014 07:45:35 08/03/2014 07:46:03 08/03/2014 07:45:49 30.87
7 08/04/2014 07:26:52 08/04/2014 07:27:09 08/04/2014 07:27:01 79.07


NCC Satellite Cal/Val Overpasses Prediction Service
